Home   Weather   Landeck   Past weeks

Flag for Austria Past Weather in Landeck, Tyrol, Austria — Yesterday and Last 2 Weeks

Now
35 °F

Chilly.


Feels Like: 35 °F
Forecast: 30 / 54 °F
Wind: 1 mph from Southwest

Location: Landeck

Current Time: Apr 29, 2017 at 5:56:54 am

Latest Report: Apr 29, 2017 at 5:00 am


Visibility: N/A

Pressure: 30.17 "Hg (27.36 "Hg at 784m altitude)

Humidity: 90%

Dew Point: 32 °F

Location of LandeckLocation

Past Weather in Landeck — Graph

°F

Landeck Temperature Yesterday

Maximum temperature yesterday: 41 °F (at 6:00 pm)
Minimum temperature yesterday: 34 °F (at 8:00 am)
Average temperature yesterday: 37 °F

High & Low Weather Summary for the Past Weeks

 TemperatureHumidityPressure
High70 °F (Apr 14, 4:00 pm)94% (Apr 18, 7:00 am)30.65 "Hg (Apr 18, 7:00 am)
Low25 °F (Apr 21, 7:00 am)16% (Apr 14, 3:00 pm)29.57 "Hg (Apr 25, 6:00 pm)
Average44 °F63%30.07 "Hg
* Reported Apr 14 4:00 am — Apr 29 4:00 am, Landeck, Weather by CustomWeather, © 2017

Note: Actual official high and low records may vary slightly from our data, if they occured in-between our weather recording intervals... More about our weather records

Advertising

Landeck Weather History for the Previous 24 Hours

Scroll right to see more
 ConditionsComfort  
Time TempWeatherWind HumidityBarometerVisibility
4:00 am
Sat, Apr 29
35 °FChilly.No wind91%30.16 "HgN/A
3:00 am36 °FChilly.No wind91%30.15 "HgN/A
2:00 amN/APassing clouds.93 mphN/AN/A2 mi
1:00 am36 °FChilly.1 mph89%30.14 "HgN/A
12:00 am36 °FChilly.No wind87%30.14 "HgN/A
11:00 pm
Fri, Apr 28
36 °FChilly.No wind88%30.12 "HgN/A
10:00 pm37 °FFog.1 mph87%30.10 "HgN/A
9:00 pm37 °FChilly.2 mph86%30.07 "HgN/A
8:00 pm39 °FChilly.1 mph84%30.04 "HgN/A
7:00 pm40 °FQuite cool.2 mph76%30.01 "HgN/A
6:00 pm41 °FQuite cool.1 mph71%30.00 "HgN/A
5:00 pm40 °FQuite cool.2 mph71%29.98 "HgN/A
4:00 pm40 °FFog.2 mph77%29.96 "HgN/A
3:00 pm39 °FChilly.3 mph83%29.94 "HgN/A
2:00 pm38 °FChilly.3 mph89%29.91 "HgN/A
1:00 pm36 °FFog.2 mph88%29.91 "HgN/A
12:00 pm37 °FSprinkles. Cloudy.1 mph88%29.87 "HgN/A
11:00 am36 °FChilly.No wind88%29.85 "HgN/A
10:00 am36 °FChilly.2 mph90%29.85 "HgN/A
9:00 am35 °FFog.1 mph91%29.85 "HgN/A
8:00 am34 °FChilly.1 mph91%29.84 "HgN/A
7:00 am35 °FChilly.No wind91%29.82 "HgN/A
6:00 am36 °FFog.1 mph90%29.82 "HgN/A
5:00 am35 °FChilly.1 mph91%29.82 "HgN/A
Weather by CustomWeather, © 2017

See weather overviewHow to use our weather pages